Temp
-15 -15 -15 -15 -15 -15 -15 -15 -15 -15 -15 -15 -15 -15 -16 -16 -16 -17 -18 -18 -18 -18 -18 -18 -18 -18 -18 -18 -18 -17 -17 -17
-15 -15 -15 -15 -15 -15 -15 -15 -16 -16 -16 -16 -15 -15 -16 -16 -17 -17 -17 -18 -18 -18 -18 -18 -17 -17 -18 -18 -18 -18 -18 -18
-15 -15 -15 -15 -16 -16 -16 -16 -16 -16 -15 -15 -15 -16 -17 -16 -16 -17 -18 -18 -18 -18 -18 -19 -19 -19 -19 -19 -19 -19 -19 -19
-15 -16 -16 -16 -16 -16 -16 -15 -15 -15 -16 -16 -17 -16 -16 -17 -17 -17 -18 -18 -19 -19 -19 -19 -19 -19 -19 -19 -19 -19 -19 -19
-16 -16 -16 -16 -16 -16 -16 -16 -15 -16 -16 -16 -16 -17 -17 -18 -18 -19 -19 -19 -19 -19 -19 -19 -19 -19 -19 -19 -19 -19 -19 -19
-16 -16 -16 -16 -15 -15 -15 -15 -15 -16 -16 -16 -16 -17 -17 -18 -18 -18 -19 -19 -19 -19 -19 -19 -19 -19 -19 -19 -19 -19 -19 -20
-16 -15 -15 -15 -15 -15 -15 -15 -15 -15 -15 -16 -17 -17 -17 -17 -18 -18 -18 -19 -19 -19 -19 -19 -19 -19 -19 -19 -19 -20 -20 -20
-15 -15 -15 -15 -15 -15 -15 -15 -15 -16 -16 -16 -17 -17 -17 -18 -18 -18 -19 -19 -19 -20 -19 -19 -19 -19 -19 -19 -20 -20 -21 -21
-15 -15 -15 -15 -15 -15 -15 -16 -16 -16 -16 -17 -17 -17 -17 -18 -18 -19 -19 -19 -19 -19 -19 -19 -19 -20 -20 -20 -21 -21 -22 -22
-15 -15 -15 -15 -15 -15 -16 -16 -16 -16 -17 -17 -18 -18 -18 -18 -19 -19 -20 -19 -19 -20 -20 -20 -20 -21 -21 -21 -22 -22 -22 -24
-15 -15 -15 -15 -15 -16 -16 -16 -16 -17 -17 -18 -18 -18 -18 -19 -19 -20 -20 -20 -20 -20 -20 -20 -21 -21 -21 -22 -22 -23 -25 -27
-15 -15 -15 -16 -16 -16 -16 -16 -16 -17 -17 -18 -18 -18 -19 -20 -20 -20 -20 -20 -20 -21 -21 -21 -21 -22 -22 -23 -23 -26 -28 -29
-15 -15 -16 -16 -16 -16 -16 -16 -17 -17 -18 -18 -19 -19 -20 -20 -20 -20 -21 -21 -21 -21 -21 -21 -22 -23 -23 -24 -27 -28 -29 -31
-16 -16 -16 -16 -16 -16 -17 -17 -17 -18 -18 -19 -19 -20 -20 -20 -20 -21 -21 -21 -21 -21 -22 -22 -23 -23 -25 -27 -28 -29 -30 -31
-16 -16 -16 -16 -16 -17 -17 -17 -18 -19 -19 -19 -20 -20 -20 -21 -21 -21 -22 -22 -22 -22 -22 -23 -23 -25 -27 -28 -29 -31 -31 -32
-16 -16 -16 -17 -17 -17 -18 -18 -19 -19 -19 -19 -20 -20 -21 -21 -22 -22 -22 -22 -22 -23 -23 -23 -25 -27 -28 -29 -30 -31 -32 -33
-16 -17 -17 -17 -18 -18 -18 -19 -19 -19 -19 -20 -21 -21 -21 -22 -22 -22 -23 -23 -23 -23 -23 -25 -27 -28 -29 -31 -31 -32 -33 -33
-17 -17 -18 -18 -18 -18 -19 -19 -19 -20 -20 -21 -21 -22 -22 -22 -23 -23 -23 -23 -23 -24 -25 -27 -28 -29 -30 -32 -32 -33 -33 -33
-18 -18 -18 -18 -19 -19 -19 -20 -20 -20 -21 -21 -22 -22 -22 -23 -23 -23 -23 -23 -24 -25 -26 -28 -29 -30 -32 -32 -33 -33 -33 -33
Height
5811 5811 5811 5810 5810 5808 5807 5805 5803 5802 5800 5796 5791 5786 5782 5779 5775 5771 5766 5762 5759 5755 5751 5747 5743 5740 5735 5731 5727 5722 5718 5716
5810 5810 5810 5809 5807 5805 5804 5803 5800 5796 5793 5790 5786 5782 5778 5772 5767 5764 5760 5755 5751 5747 5742 5738 5733 5727 5723 5718 5712 5706 5702 5697
5808 5807 5806 5804 5803 5801 5799 5797 5794 5790 5787 5783 5779 5775 5770 5766 5760 5754 5749 5744 5739 5734 5730 5724 5720 5714 5708 5705 5699 5693 5686 5680
5804 5802 5800 5798 5797 5795 5792 5790 5788 5785 5780 5775 5772 5768 5763 5757 5751 5746 5741 5736 5731 5725 5720 5714 5708 5702 5695 5689 5683 5677 5670 5662
5798 5797 5795 5793 5791 5790 5788 5785 5781 5778 5775 5771 5766 5760 5753 5747 5742 5736 5730 5726 5720 5714 5708 5701 5695 5688 5681 5674 5667 5659 5652 5641
5793 5791 5789 5787 5785 5783 5782 5779 5775 5772 5768 5761 5756 5750 5744 5738 5732 5727 5721 5714 5708 5701 5694 5688 5681 5673 5665 5656 5648 5639 5629 5619
5787 5785 5783 5781 5780 5777 5775 5772 5768 5763 5757 5753 5748 5742 5736 5730 5725 5718 5710 5702 5694 5686 5679 5672 5664 5655 5647 5637 5627 5617 5607 5597
5781 5780 5778 5776 5774 5771 5768 5764 5760 5755 5750 5745 5739 5733 5727 5721 5714 5706 5698 5690 5682 5673 5664 5655 5646 5638 5629 5619 5609 5597 5585 5571
5778 5776 5773 5770 5767 5764 5760 5756 5752 5747 5742 5737 5730 5724 5717 5709 5702 5694 5685 5676 5668 5659 5651 5642 5634 5624 5613 5601 5587 5575 5561 5545
5773 5771 5768 5765 5761 5757 5753 5749 5744 5739 5733 5727 5719 5712 5705 5697 5689 5680 5671 5663 5655 5647 5639 5628 5618 5606 5594 5582 5567 5551 5536 5519
5768 5765 5762 5758 5754 5750 5746 5741 5735 5729 5722 5716 5708 5700 5692 5684 5676 5668 5659 5651 5642 5633 5623 5612 5600 5587 5574 5559 5544 5525 5509 5495
5762 5759 5755 5751 5747 5742 5738 5732 5725 5718 5711 5704 5696 5689 5680 5672 5664 5655 5646 5636 5627 5617 5606 5595 5582 5568 5553 5535 5517 5503 5491 5480
5756 5752 5748 5743 5738 5734 5728 5720 5714 5707 5699 5691 5684 5676 5668 5660 5652 5642 5632 5623 5613 5602 5591 5579 5565 5549 5534 5514 5498 5485 5475 5467
5748 5744 5739 5733 5728 5722 5716 5709 5702 5695 5687 5680 5673 5665 5656 5648 5638 5629 5619 5609 5598 5586 5574 5559 5545 5528 5509 5495 5482 5471 5462 5456
5738 5734 5728 5722 5716 5710 5704 5697 5690 5683 5675 5668 5660 5652 5643 5634 5624 5615 5605 5594 5583 5570 5556 5541 5524 5506 5490 5478 5467 5458 5451 5445
5728 5723 5716 5710 5705 5699 5692 5685 5678 5671 5664 5656 5647 5639 5630 5621 5611 5601 5590 5579 5566 5553 5538 5521 5503 5488 5475 5464 5455 5448 5442 5437
5717 5711 5705 5699 5693 5687 5680 5673 5667 5659 5651 5642 5634 5625 5616 5606 5596 5586 5575 5562 5549 5534 5517 5500 5485 5473 5461 5451 5444 5439 5434 5429
5705 5699 5693 5687 5681 5674 5667 5660 5653 5645 5637 5628 5620 5612 5602 5592 5582 5571 5560 5547 5532 5516 5498 5483 5470 5459 5450 5443 5436 5430 5425 5421
5692 5687 5680 5674 5668 5662 5654 5647 5639 5632 5624 5615 5607 5598 5589 5578 5568 5557 5545 5530 5515 5499 5484 5470 5458 5448 5440 5434 5428 5422 5417 5412
Wind_Speed
13 12 12 15 17 19 21 22 24 27 32 36 37 42 45 44 46 45 41 38 39 40 42 44 46 48 48 48 51 54 56 56
14 14 17 19 22 23 22 21 27 30 36 38 39 42 45 50 47 44 42 40 40 42 44 47 50 52 54 57 59 61 60 61
13 16 18 19 20 19 21 25 30 35 39 41 43 45 48 46 47 46 44 45 48 52 54 56 57 58 60 59 57 58 62 66
13 16 18 19 23 23 26 30 34 35 40 40 42 45 45 46 48 48 48 50 52 55 56 56 56 56 58 60 63 66 69 72
15 18 19 21 23 24 27 30 30 32 34 34 36 40 44 48 50 51 54 54 55 56 57 58 59 60 63 67 69 72 74 79
17 19 21 20 18 18 19 22 25 29 31 35 39 42 45 48 51 54 56 57 58 59 58 58 61 64 67 70 74 78 82 85
17 17 14 13 15 18 20 23 27 31 35 39 43 45 49 52 54 57 58 58 59 60 60 62 65 68 72 76 80 84 88 92
13 12 13 15 18 21 24 27 31 36 40 43 46 49 52 52 54 57 58 59 60 61 63 66 69 73 77 82 86 90 92 96
13 15 16 19 23 25 27 30 34 37 41 44 47 50 52 53 56 58 61 62 62 62 65 69 74 77 81 86 89 93 98 103
15 17 21 24 27 29 31 34 37 40 43 46 48 54 54 57 58 62 63 62 62 64 68 73 76 81 85 88 94 100 104 102
19 22 25 28 31 33 34 38 41 43 46 49 53 56 58 58 61 63 61 62 64 68 72 76 80 84 89 95 101 104 93 78
24 27 30 32 35 37 38 41 45 48 51 53 56 59 59 60 62 62 62 64 68 71 76 79 84 87 93 102 104 86 73 62
30 33 36 39 41 42 43 46 48 52 55 57 59 60 60 61 62 62 65 68 72 76 79 84 87 94 101 94 79 70 60 49
36 39 42 45 47 48 50 51 53 55 57 59 61 61 61 63 63 65 68 72 77 80 84 87 94 101 88 75 68 59 48 41
41 44 47 50 51 52 54 55 55 57 59 61 62 62 63 64 64 67 72 76 80 84 87 92 100 85 74 68 59 48 41 38
45 48 50 53 54 55 56 57 58 59 60 62 63 62 63 63 66 71 76 79 84 86 90 98 86 75 68 60 48 41 37 35
49 51 53 55 56 57 58 57 58 59 61 62 62 61 62 65 68 74 79 83 87 90 96 87 77 69 61 49 42 38 36 35
51 53 55 57 58 58 56 57 58 60 62 61 60 61 65 67 72 78 80 87 88 93 86 78 71 62 51 42 38 36 36 36
52 54 56 57 56 54 56 58 59 61 60 58 60 64 67 72 76 78 84 87 92 88 78 72 64 53 44 39 36 34 32 33
Wind_Direction
242 259 278 283 289 291 288 290 295 305 308 304 300 305 310 313 314 314 311 307 303 298 295 294 294 293 292 291 291 291 293 294
258 262 269 275 279 281 285 291 297 301 310 307 302 305 308 310 312 307 306 304 300 298 298 298 298 297 296 296 298 298 298 296
271 278 278 276 273 276 278 292 301 305 305 301 302 307 305 301 302 305 305 304 306 308 307 305 303 301 300 297 296 296 297 295
277 269 280 284 283 281 280 289 295 296 307 310 301 298 303 308 309 307 306 305 304 302 301 299 298 298 298 298 299 299 299 298
266 274 284 283 286 282 285 294 304 306 306 303 305 307 311 310 308 305 303 301 299 300 299 299 300 301 301 301 301 301 302 303
275 280 288 294 297 300 300 302 304 303 309 318 314 313 311 310 308 306 304 303 302 300 300 301 302 303 304 305 306 306 305 305
277 285 296 300 302 303 306 309 310 314 317 313 311 310 308 308 307 307 307 306 306 306 306 306 307 308 309 308 308 308 306 305
279 288 294 300 304 311 313 315 313 313 311 309 308 306 304 304 307 308 309 309 309 308 308 310 310 310 309 309 308 307 307 306
276 283 296 307 310 311 314 313 310 310 308 307 306 305 305 305 307 312 313 310 309 309 310 310 308 308 309 309 310 309 309 308
286 294 302 305 307 309 308 305 304 306 306 306 307 309 308 307 312 311 310 310 309 308 308 309 309 310 311 312 312 312 308 308
291 296 299 301 303 302 302 300 301 305 307 308 307 309 308 310 311 311 309 308 308 308 309 310 311 312 313 314 313 310 310 308
292 294 296 297 298 299 300 300 305 308 307 307 308 308 310 309 310 309 309 309 309 310 311 314 315 315 315 314 311 311 310 305
292 293 294 295 296 297 300 302 306 306 307 307 308 309 308 308 309 309 309 310 311 312 315 317 317 316 314 314 313 311 307 302
292 292 292 294 297 299 298 300 303 306 305 307 308 307 307 309 310 310 311 312 312 316 319 319 318 316 317 316 314 310 305 300
293 295 295 296 298 300 300 298 302 305 307 308 308 308 309 310 310 312 314 315 318 320 320 319 320 319 318 317 313 309 305 301
296 296 294 296 298 300 300 300 300 305 307 308 309 309 310 309 313 316 317 319 322 321 320 322 321 319 319 316 312 307 304 301
296 296 295 297 299 300 301 300 301 306 308 309 309 309 310 313 314 316 319 322 322 321 323 324 321 321 318 315 309 307 306 306
296 295 295 297 299 301 301 302 305 307 308 308 308 310 314 314 314 317 321 323 322 324 325 323 321 320 317 311 307 307 305 304
295 296 298 300 301 302 303 305 306 307 309 307 309 312 315 316 316 319 322 323 325 328 324 322 321 318 314 309 308 307 305 307